Regional Weather Roundup
Issued by NWS

Home | Current Version | Previous Version | Text Only | Print | Product List | Glossary Off
Versions: 1 2 3 4 5 6 7 8 9 10 11 12 13 14 15 16 17 18 19 20 21 22 23 24 25 26 27 28 29 30 31 32 33 34 35 36 37 38 39 40 41 42 43 44 45 46 47 48 49 50

000
ASUS43 KBIS 231259
RWRND

NORTH DAKOTA REGIONAL WEATHER ROUNDUP
NATIONAL WEATHER SERVICE BISMARCK ND
800 AM CDT WED JUL 23 2014

NOTE: "FAIR" INDICATES FEW OR NO CLOUDS BELOW 12,000 FEET WITH NO
SIGNIFICANT WEATHER AND/OR OBSTRUCTIONS TO VISIBILITY.


NDZ001>003-009>011-017-231400-
NORTHWEST NORTH DAKOTA

CITY           SKY/WX    TMP DP  RH WIND       PRES   REMARKS
WILLISTON      PTSUNNY   68  62  81 E6        30.22F
MINOT          CLOUDY    64  62  93 E7        30.27R FOG
MINOT AFB      PTSUNNY   63  63 100 N8        30.28R
$$

NDZ018>021-031>035-040>046-231400-
SOUTHWEST NORTH DAKOTA

CITY           SKY/WX    TMP DP  RH WIND       PRES   REMARKS
BISMARCK       SUNNY     66  61  84 E7        30.27S
GARRISON         N/A     67  64  90 SE10      30.26R
HETTINGER ARPT SUNNY     64  60  87 SE8       30.24S
$$

NDZ004>008-012>016-024-026-027-054-231400-
NORTHEAST NORTH DAKOTA

CITY           SKY/WX    TMP DP  RH WIND       PRES   REMARKS
GRAND FORKS    PTSUNNY   61  58  90 NW5       30.31R
DEVILS LAKE    CLOUDY    63  54  72 E6        30.31S
$$

NDZ022-023-025-028>030-036>039-047>053-231400-
SOUTHEAST NORTH DAKOTA

CITY           SKY/WX    TMP DP  RH WIND       PRES   REMARKS
FARGO          MOSUNNY   63  58  83 CALM      30.29S
$$




USA.gov is the U.S. government's official web portal to all federal, state and local government web resources and services.